Time,TemperatureF,DewpointF,PressureIn,WindDirection,WindDirectionDegrees,WindSpeedMPH,WindSpeedGustMPH,Humidity,HourlyPrecipIn,Conditions,Clouds,dailyrainin,SoftwareType,DateUTC
2013-08-21 00:02:00,56.0,36.0,-100.00,WSW,256,2.0,8.0,47,0.00,,,0.01,,2013-08-21 06:02:00,
2013-08-21 00:12:00,56.0,36.0,-100.00,WSW,256,2.0,8.0,47,0.00,,,0.01,,2013-08-21 06:12:00,
2013-08-21 00:22:00,56.0,36.0,-100.00,WSW,256,2.0,8.0,47,0.00,,,0.01,,2013-08-21 06:22:00,
2013-08-21 00:52:00,55.0,36.0,-100.00,East,80,2.0,3.0,48,0.00,,,0.01,,2013-08-21 06:52:00,
2013-08-21 01:02:00,55.0,36.0,-100.00,East,80,2.0,3.0,48,0.00,,,0.01,,2013-08-21 07:02:00,
2013-08-21 01:11:00,55.0,36.0,-100.00,East,80,2.0,3.0,48,0.00,,,0.01,,2013-08-21 07:11:00,
2013-08-21 01:22:00,55.0,36.0,-100.00,East,80,2.0,3.0,48,0.00,,,0.01,,2013-08-21 07:22:00,
2013-08-21 01:53:00,55.0,35.0,-100.00,ENE,77,6.0,9.0,47,0.00,,,0.01,,2013-08-21 07:53:00,
2013-08-21 02:03:00,55.0,35.0,-100.00,ENE,77,6.0,9.0,47,0.00,,,0.01,,2013-08-21 08:03:00,
2013-08-21 02:12:00,55.0,35.0,-100.00,ENE,77,6.0,9.0,47,0.00,,,0.01,,2013-08-21 08:12:00,
2013-08-21 02:22:00,55.0,35.0,-100.00,ENE,77,6.0,9.0,47,0.00,,,0.01,,2013-08-21 08:22:00,
2013-08-21 02:53:00,54.0,37.0,-100.00,West,267,5.0,8.0,52,0.00,,,0.01,,2013-08-21 08:53:00,
2013-08-21 03:01:00,54.0,37.0,-100.00,West,267,5.0,8.0,52,0.00,,,0.01,,2013-08-21 09:01:00,
2013-08-21 03:11:00,54.0,37.0,-100.00,West,267,5.0,8.0,52,0.00,,,0.01,,2013-08-21 09:11:00,
2013-08-21 03:22:00,54.0,37.0,-100.00,West,267,5.0,8.0,52,0.00,,,0.01,,2013-08-21 09:22:00,
2013-08-21 03:54:00,52.0,37.0,-100.00,SSW,193,4.0,7.0,56,0.00,,,0.01,,2013-08-21 09:54:00,
2013-08-21 04:03:00,52.0,37.0,-100.00,SSW,193,4.0,7.0,56,0.00,,,0.01,,2013-08-21 10:03:00,
2013-08-21 04:13:00,52.0,37.0,-100.00,SSW,193,4.0,7.0,56,0.00,,,0.01,,2013-08-21 10:13:00,
2013-08-21 04:23:00,52.0,37.0,-100.00,SSW,193,4.0,7.0,56,0.00,,,0.01,,2013-08-21 10:23:00,
2013-08-21 04:53:00,51.0,38.0,-100.00,SSE,162,2.0,6.0,60,0.00,,,0.01,,2013-08-21 10:53:00,
2013-08-21 05:03:00,51.0,38.0,-100.00,SSE,162,2.0,6.0,60,0.00,,,0.01,,2013-08-21 11:03:00,
2013-08-21 05:12:00,51.0,38.0,-100.00,SSE,162,2.0,6.0,60,0.00,,,0.01,,2013-08-21 11:12:00,
2013-08-21 05:22:00,51.0,38.0,-100.00,SSE,162,2.0,6.0,60,0.00,,,0.01,,2013-08-21 11:22:00,
2013-08-21 05:53:00,51.0,38.0,-100.00,SW,223,3.0,10.0,62,0.00,,,0.01,,2013-08-21 11:53:00,
2013-08-21 06:01:00,51.0,38.0,-100.00,SW,223,3.0,10.0,62,0.00,,,0.01,,2013-08-21 12:01:00,
2013-08-21 06:12:00,51.0,38.0,-100.00,SW,223,3.0,10.0,62,0.00,,,0.01,,2013-08-21 12:12:00,
2013-08-21 06:22:00,51.0,38.0,-100.00,SW,223,3.0,10.0,62,0.00,,,0.01,,2013-08-21 12:22:00,
2013-08-21 06:52:00,50.0,38.0,-100.00,SE,128,3.0,35.0,64,0.00,,,0.01,,2013-08-21 12:52:00,
2013-08-21 07:02:00,50.0,38.0,-100.00,SE,128,3.0,35.0,64,0.00,,,0.01,,2013-08-21 13:02:00,
2013-08-21 07:12:00,50.0,38.0,-100.00,SE,128,3.0,35.0,64,0.00,,,0.01,,2013-08-21 13:12:00,
2013-08-21 07:21:00,50.0,38.0,-100.00,SE,128,3.0,35.0,64,0.00,,,0.01,,2013-08-21 13:21:00,
2013-08-21 07:52:00,54.0,40.0,-100.00,West,269,3.0,10.0,59,0.00,,,0.01,,2013-08-21 13:52:00,
2013-08-21 08:02:00,54.0,40.0,-100.00,West,269,3.0,10.0,59,0.00,,,0.01,,2013-08-21 14:02:00,
2013-08-21 08:11:00,54.0,40.0,-100.00,West,269,3.0,10.0,59,0.00,,,0.01,,2013-08-21 14:11:00,
2013-08-21 08:21:00,54.0,40.0,-100.00,West,269,3.0,10.0,59,0.00,,,0.01,,2013-08-21 14:21:00,
2013-08-21 08:52:00,59.0,41.0,-100.00,West,259,3.0,5.0,51,0.00,,,0.01,,2013-08-21 14:52:00,
2013-08-21 09:01:00,59.0,41.0,-100.00,West,259,3.0,5.0,51,0.00,,,0.01,,2013-08-21 15:01:00,
2013-08-21 09:11:00,59.0,41.0,-100.00,West,259,3.0,5.0,51,0.00,,,0.01,,2013-08-21 15:11:00,
2013-08-21 09:22:00,59.0,41.0,-100.00,West,259,3.0,5.0,51,0.00,,,0.01,,2013-08-21 15:22:00,
2013-08-21 09:55:00,62.0,40.0,-100.00,WSW,244,3.0,69.0,44,0.00,,,0.01,,2013-08-21 15:55:00,
2013-08-21 10:04:00,62.0,40.0,-100.00,WSW,244,3.0,69.0,44,0.00,,,0.01,,2013-08-21 16:04:00,
2013-08-21 10:13:00,62.0,40.0,-100.00,WSW,244,3.0,69.0,44,0.00,,,0.01,,2013-08-21 16:13:00,
2013-08-21 10:24:00,62.0,40.0,-100.00,WSW,244,3.0,69.0,44,0.00,,,0.01,,2013-08-21 16:24:00,
2013-08-21 10:53:00,65.0,40.0,-100.00,West,265,8.0,13.0,40,0.00,,,0.01,,2013-08-21 16:53:00,
2013-08-21 11:04:00,65.0,40.0,-100.00,West,265,8.0,13.0,40,0.00,,,0.01,,2013-08-21 17:04:00,
2013-08-21 11:13:00,65.0,40.0,-100.00,West,265,8.0,13.0,40,0.00,,,0.01,,2013-08-21 17:13:00,
2013-08-21 11:23:00,65.0,40.0,-100.00,West,265,8.0,13.0,40,0.00,,,0.01,,2013-08-21 17:23:00,
2013-08-21 11:53:00,65.0,41.0,-100.00,West,280,10.0,27.0,41,0.00,,,0.01,,2013-08-21 17:53:00,
2013-08-21 12:02:00,65.0,41.0,-100.00,West,280,10.0,27.0,41,0.00,,,0.01,,2013-08-21 18:02:00,
2013-08-21 12:12:00,65.0,41.0,-100.00,West,280,10.0,27.0,41,0.00,,,0.01,,2013-08-21 18:12:00,
2013-08-21 12:22:00,65.0,41.0,-100.00,West,280,10.0,27.0,41,0.00,,,0.01,,2013-08-21 18:22:00,
2013-08-21 12:52:00,66.0,40.0,-100.00,West,274,10.0,31.0,38,0.00,,,0.01,,2013-08-21 18:52:00,
2013-08-21 13:01:00,66.0,40.0,-100.00,West,274,10.0,31.0,38,0.00,,,0.01,,2013-08-21 19:01:00,
2013-08-21 13:12:00,66.0,40.0,-100.00,West,274,10.0,31.0,38,0.00,,,0.01,,2013-08-21 19:12:00,
2013-08-21 13:22:00,66.0,40.0,-100.00,West,274,10.0,31.0,38,0.00,,,0.01,,2013-08-21 19:22:00,
2013-08-21 13:52:00,66.0,38.0,-100.00,NW,312,10.0,23.0,36,0.00,,,0.01,,2013-08-21 19:52:00,
2013-08-21 14:03:00,66.0,38.0,-100.00,NW,312,10.0,23.0,36,0.00,,,0.01,,2013-08-21 20:03:00,
2013-08-21 14:11:00,66.0,38.0,-100.00,NW,312,10.0,23.0,36,0.00,,,0.01,,2013-08-21 20:11:00,
2013-08-21 14:22:00,66.0,38.0,-100.00,NW,312,10.0,23.0,36,0.00,,,0.01,,2013-08-21 20:22:00,
2013-08-21 14:52:00,69.0,38.0,-100.00,WNW,289,11.0,35.0,32,0.00,,,0.01,,2013-08-21 20:52:00,
2013-08-21 15:02:00,69.0,38.0,-100.00,WNW,289,11.0,35.0,32,0.00,,,0.01,,2013-08-21 21:02:00,
2013-08-21 15:12:00,69.0,38.0,-100.00,WNW,289,11.0,35.0,32,0.00,,,0.01,,2013-08-21 21:12:00,
2013-08-21 15:21:00,69.0,38.0,-100.00,WNW,289,11.0,35.0,32,0.00,,,0.01,,2013-08-21 21:21:00,
2013-08-21 15:55:00,66.0,37.0,-100.00,NNW,343,10.0,49.0,34,0.00,,,0.01,,2013-08-21 21:55:00,
2013-08-21 16:04:00,66.0,37.0,-100.00,NNW,343,10.0,49.0,34,0.00,,,0.01,,2013-08-21 22:04:00,
2013-08-21 16:14:00,66.0,37.0,-100.00,NNW,343,10.0,49.0,34,0.00,,,0.01,,2013-08-21 22:14:00,
2013-08-21 16:24:00,66.0,37.0,-100.00,NNW,343,10.0,49.0,34,0.00,,,0.01,,2013-08-21 22:24:00,
2013-08-21 16:53:00,73.0,37.0,-100.00,West,280,14.0,28.0,27,0.00,,,0.01,,2013-08-21 22:53:00,
2013-08-21 17:04:00,73.0,37.0,-100.00,West,280,14.0,28.0,27,0.00,,,0.01,,2013-08-21 23:04:00,
2013-08-21 17:13:00,73.0,37.0,-100.00,West,280,14.0,28.0,27,0.00,,,0.01,,2013-08-21 23:13:00,
2013-08-21 17:22:00,73.0,37.0,-100.00,West,280,14.0,28.0,27,0.00,,,0.01,,2013-08-21 23:22:00,
2013-08-21 17:53:00,70.0,33.0,-100.00,West,278,13.0,40.0,25,0.00,,,0.01,,2013-08-21 23:53:00,
2013-08-21 18:02:00,70.0,33.0,-100.00,West,278,13.0,40.0,25,0.00,,,0.01,,2013-08-22 00:02:00,
2013-08-21 18:12:00,70.0,33.0,-100.00,West,278,13.0,40.0,25,0.00,,,0.01,,2013-08-22 00:12:00,
2013-08-21 18:22:00,70.0,33.0,-100.00,West,278,13.0,40.0,25,0.00,,,0.01,,2013-08-22 00:22:00,
2013-08-21 18:52:00,66.0,32.0,-100.00,West,281,6.0,31.0,28,0.00,,,0.00,,2013-08-22 00:52:00,
2013-08-21 19:02:00,66.0,32.0,-100.00,West,281,6.0,31.0,28,0.00,,,0.00,,2013-08-22 01:02:00,
2013-08-21 19:11:00,66.0,32.0,-100.00,West,281,6.0,31.0,28,0.00,,,0.00,,2013-08-22 01:11:00,
2013-08-21 19:52:00,62.0,38.0,-100.00,SSW,201,8.0,14.0,41,0.00,,,0.00,,2013-08-22 01:52:00,
2013-08-21 20:03:00,62.0,38.0,-100.00,SSW,201,8.0,14.0,41,0.00,,,0.00,,2013-08-22 02:03:00,
2013-08-21 20:12:00,62.0,38.0,-100.00,SSW,201,8.0,14.0,41,0.00,,,0.00,,2013-08-22 02:12:00,
2013-08-21 20:22:00,62.0,38.0,-100.00,SSW,201,8.0,14.0,41,0.00,,,0.00,,2013-08-22 02:22:00,
2013-08-21 21:12:00,60.0,39.0,-100.00,SW,226,5.0,11.0,46,0.00,,,0.00,,2013-08-22 03:12:00,
2013-08-21 21:22:00,60.0,39.0,-100.00,SW,226,5.0,11.0,46,0.00,,,0.00,,2013-08-22 03:22:00,
2013-08-21 21:54:00,60.0,37.0,-100.00,SSE,165,12.0,18.0,43,0.00,,,0.00,,2013-08-22 03:54:00,
2013-08-21 22:04:00,60.0,37.0,-100.00,SSE,165,12.0,18.0,43,0.00,,,0.00,,2013-08-22 04:04:00,
2013-08-21 22:14:00,60.0,37.0,-100.00,SSE,165,12.0,18.0,43,0.00,,,0.00,,2013-08-22 04:14:00,
2013-08-21 22:23:00,60.0,37.0,-100.00,SSE,165,12.0,18.0,43,0.00,,,0.00,,2013-08-22 04:23:00,
2013-08-21 23:03:00,59.0,37.0,-100.00,SSE,162,11.0,17.0,43,0.00,,,0.00,,2013-08-22 05:03:00,
2013-08-21 23:13:00,59.0,37.0,-100.00,SSE,162,11.0,17.0,43,0.00,,,0.00,,2013-08-22 05:13:00,
2013-08-21 23:22:00,59.0,37.0,-100.00,SSE,162,11.0,17.0,43,0.00,,,0.00,,2013-08-22 05:22:00,
2013-08-21 23:53:00,60.0,37.0,-100.00,South,177,9.0,14.0,42,0.00,,,0.00,,2013-08-22 05:53:00,